Grazzanise, Italy

3:42 AM CEST on June 24, 2017 (GMT +0200)
Grazzanise Mil

Weather History for LIRM - January, 2013

Change the Weather History Date:

Saturday, January 12, 2013

  Actual Average (LIRN) Record (LIRN)
Temperature  
Mean Temperature 45 °F -  
Max Temperature 58 °F 55 °F 64 °F (2007)
Min Temperature 32 °F 38 °F 27 °F (2017)
Degree Days  
Heating Degree Days 20    
Moisture  
Dew Point 40 °F    
Average Humidity 82    
Maximum Humidity 93    
Minimum Humidity 52    
Precipitation  
Precipitation 0.04 in 0.12 in - ()
Sea Level Pressure  
Sea Level Pressure 29.97 in    
Wind  
Wind Speed 4 mph ()    
Max Wind Speed 9 mph    
Max Gust Speed -    
Visibility 6.5 miles    
Events Rain    
Averages and records for this station are not official NWS values.
T = Trace of Precipitation, MM = Missing Value Source: Averaged Metar Reports

Daily Weather History Graph

Daily Weather History Graph

Search for Another Location

Airport or City:

Trip Planner

Search our weather history database for the weather conditions in past years. The results will help you decide how hot, cold, wet, or windy it might be!

Date:

Astronomy

Jan. 12, 2013 Rise Set
Actual Time 7:27 AM CET 4:56 PM CET
Civil Twilight 6:57 AM CET 5:27 PM CET
Nautical Twilight 6:23 AM CET 6:01 PM CET
Astronomical Twilight 5:50 AM CET 6:34 PM CET
Moon 7:33 AM CET (1/12) 6:06 PM CET (1/12)
Length of Visible Light 10h 30m
Length of Day
9h 29m
New Moon, 1% of the Moon is Illuminated
Jan 12
New Moon
Jan 19
First Quarter
Jan 27
Full
Feb 3
Last Quarter
Feb 10
New

Hourly Weather History & Observations

Time (CET) Temp. Windchill Dew Point Humidity Pressure Visibility Wind Dir Wind Speed Gust Speed Precip Events Conditions
12:55 AM 37.4 °F 33.8 °F 33.8 °F 87% 29.83 in 5.0 mi NNE 4.6 mph - N/A   Partly Cloudy
1:00 AM 38 °F - 35 °F 82% 29.85 in 5 mi NNE 4.6 mph - -   Mist
1:55 AM 37.4 °F 34.9 °F 33.8 °F 87% 29.83 in 5.0 mi NNE 3.5 mph - N/A   Partly Cloudy
2:55 AM 35.6 °F - 32.0 °F 87% 29.86 in - Calm Calm - N/A   Clear
3:55 AM 33.8 °F 30.8 °F 30.2 °F 87% 29.89 in - West 3.5 mph - N/A   Clear
4:00 AM 34 °F - 30 °F 80% 29.91 in 9 mi West 3.5 mph - -  
5:55 AM 33.8 °F 30.8 °F 30.2 °F 87% 29.92 in - ENE 3.5 mph - N/A   Clear
6:55 AM 33.8 °F 27.7 °F 28.4 °F 81% 29.92 in - NNE 6.9 mph - N/A   Clear
7:00 AM 33 °F - 29 °F 80% 29.94 in 9 mi NNE 6.9 mph - -  
7:55 AM 33.8 °F 30.8 °F 30.2 °F 87% 29.95 in - NE 3.5 mph - N/A   Clear
8:55 AM 39.2 °F 37.0 °F 35.6 °F 87% 29.98 in - NE 3.5 mph - N/A   Clear
9:55 AM 44.6 °F - 39.2 °F 81% 29.98 in - NNE 2.3 mph - N/A   Clear
10:55 AM 50.0 °F - 44.6 °F 82% 29.98 in 6.2 mi NE 4.6 mph - N/A   Partly Cloudy
11:55 AM 53.6 °F - 44.6 °F 72% 29.98 in 6.2 mi NE 2.3 mph - N/A   Partly Cloudy
12:55 PM 57.2 °F - 42.8 °F 59% 29.98 in 6.2 mi WNW 2.3 mph - N/A   Partly Cloudy
1:00 PM 56 °F - 43 °F 52% 29.99 in 25 mi WNW 2.3 mph - -   Scattered Clouds
1:55 PM 55.4 °F - 44.6 °F 67% 29.98 in 6.2 mi West 2.3 mph - N/A   Scattered Clouds
2:55 PM 53.6 °F - 42.8 °F 67% 29.98 in 6.2 mi West 4.6 mph - N/A   Scattered Clouds
3:55 PM 55.4 °F - 48.2 °F 77% 29.98 in 6.2 mi WSW 6.9 mph - N/A   Partly Cloudy
4:00 PM 55 °F - 48 °F 71% 29.99 in 22 mi WSW 6.9 mph - -   Scattered Clouds
4:55 PM 48.2 °F - 44.6 °F 87% 29.98 in 6.2 mi SW 5.8 mph - N/A   Partly Cloudy
5:55 PM 48.2 °F - 46.4 °F 93% 30.01 in 6.2 mi SSW 2.3 mph - N/A   Scattered Clouds
6:55 PM 48.2 °F - 46.4 °F 93% 30.01 in 6.2 mi ESE 2.3 mph - N/A   Scattered Clouds
7:00 PM 48 °F - 46 °F 89% 30.01 in 12 mi ESE 2.3 mph - -   Scattered Clouds
7:27 PM 48.2 °F - 46.4 °F 93% 30.01 in 3.1 mi SW 9.2 mph - N/A Rain Rain
7:55 PM 48.2 °F - 46.4 °F 93% 30.01 in 4.3 mi SW 5.8 mph - N/A Rain Light Rain
8:55 PM 48.2 °F - 46.4 °F 93% 30.01 in 6.2 mi South 2.3 mph - N/A   Mostly Cloudy
9:55 PM 44.6 °F 43.1 °F 41.0 °F 87% 30.04 in 6.2 mi ESE 3.5 mph - N/A   Scattered Clouds
10:00 PM 44 °F - 42 °F 88% 30.04 in 9 mi ESE 3.5 mph - -   Scattered Clouds
10:55 PM 44.6 °F 43.1 °F 41.0 °F 87% 30.04 in 6.2 mi SE 3.5 mph - N/A   Scattered Clouds
11:55 PM 42.8 °F - 41.0 °F 93% 30.04 in 6.2 mi ESE 2.3 mph - N/A   Scattered Clouds